[Iaude] MPEC E196: 2024 EO4 [a=1.86,e=0.57,i=3.2,H=24.8]
    mpec at cfa.harvard.edu 
    mpec at cfa.harvard.edu
       
    Fri Mar 15 18:08:00 EDT 2024
    
    
  
M.P.E.C. 2024-E196                               Issued 2024 March 15, 22:06 UT
     The Minor Planet Electronic Circulars contain information on unusual
         minor planets, routine data on comets and natural satellites,
         and occasional editorial announcements.  They are published
    on behalf of Division F of the International Astronomical Union by the
          Minor Planet Center, Smithsonian Astrophysical Observatory,
                          Cambridge, MA 02138, U.S.A.
			  
             Prepared using the Tamkin Foundation Computer Network
                              MPC at CFA.HARVARD.EDU
            URL https://www.minorplanetcenter.net/    ISSN 1523-6714
                                    2024 EO4                                    
Observations:
     K24E04O* C2024 03 14.37663212 07 03.521+11 53 15.81         21.76wXEE196F52
     K24E04O  C2024 03 14.40151412 07 06.602+11 54 46.89         20.98wXEE196F52
     K24E04O  C2024 03 14.42032612 07 08.959+11 55 57.06         21.01wXEE196F52
     K24E04O hC2024 03 14.86315412 08 19.30 +12 23 15.3          20.9 GVEE196L01
     K24E04O hC2024 03 14.86611112 08 19.72 +12 23 26.5          20.9 GVEE196L01
     K24E04O hC2024 03 14.87087312 08 20.38 +12 23 45.6          20.7 GVEE196L01
     K24E04O hC2024 03 14.87558012 08 21.11 +12 24 04.8          20.6 GVEE196L01
     K24E04O 1C2024 03 14.89708 12 08 24.09 +12 25 23.6          21.4 VXEE196033
     K24E04O 1C2024 03 14.89864 12 08 24.33 +12 25 29.8          21.5 VXEE196033
     K24E04O 1C2024 03 14.90020 12 08 24.57 +12 25 35.5          22.5 VXEE196033
     K24E04O KB2024 03 15.00374312 08 40.13 +12 32 32.4          19.9 GXEE196958
     K24E04O KB2024 03 15.01082012 08 41.17 +12 32 59.6          20.1 GXEE196958
     K24E04O KB2024 03 15.01783512 08 42.22 +12 33 27.6          20.3 GXEE196958
     K24E04O 6C2024 03 15.03933412 08 45.346+12 35 01.24         20.6 GVEE196Z84
     K24E04O 6C2024 03 15.04778712 08 46.528+12 35 35.02         20.9 GVEE196Z84
     K24E04O |C2024 03 15.14896012 09 05.770+12 43 43.20         20.7 GVEE196807
     K24E04O |C2024 03 15.15446012 09 06.570+12 44 05.50         20.6 GVEE196807
     K24E04O |C2024 03 15.15996012 09 07.340+12 44 27.90         20.4 GVEE196807
     K24E04O KB2024 03 15.87873 12 11 16.975+13 34 04.15         21.1 VZEE196J57
     K24E04O KB2024 03 15.89438 12 11 19.644+13 35 15.65         20.7 VZEE196J57
Observer details:
033 Karl Schwarzschild Observatory, Tautenburg.  Observers S. Melnikov, C.
    Hogner, F. Ludwig, M. Hartmann, B. Stecklum.  Measurer B. Stecklum.
    1.34-m f/3 Schmidt + CCD.
807 Cerro Tololo Observatory, La Serena.  Observers T. Linder, R. Holmes.
    0.61-m f/6.8 Ritchey-Chretien + CCD.
958 Observatoire de Dax.  Observer P. Dupouy.  0.50-m f/4.5 Reflector + CMO.
F52 Pan-STARRS 2, Haleakala.  Observers J. Herman, T. Lowe, P. Minguez, A.
    Schultz, I. Smith.  Measurers K. Chambers, T. de Boer, J. Fairlamb, H.
    Gao, M. Huber, C.-C. Lin, E. Magnier, Y. Ramanjooloo, R. Wainscoat, R.
    Weryk.  1.8-m Ritchey-Chretien + CCD.
J57 Centro Astronomico Alto Turia, Valencia.  Observer A. Fornas.  Measurers
    A. Fornas, G. Fornas, E. Arce, V. Mas.  0.43-m f/6.8 Reflector CDK + CMO.
L01 Visnjan Observatory, Tican.  Observers K. Korlevic, I. Lyon.  Measurer K.
    Korlevic.  1.0-m f/2.9 reflector + CCD.
Z84 Calar Alto-Schmidt.  Observers M. Micheli, R. Kresken.  Measurers R.
    Kresken, M. Micheli, F. Ocana, L. Conversi.  0.8-m f/3 Schmidt + CCD.
Orbital elements:
2024 EO4                                                 Earth MOID = 0.0118 AU
Epoch 2024 Mar. 31.0 TT = JDT 2460400.5                 MPC                     
M 344.28389              (2000.0)            P               Q                  
n   0.38881191     Peri.  101.40472     -0.30169298     +0.95302060             
a   1.8591296      Node   150.99140     -0.89506012     -0.27333414             
e   0.5743331      Incl.    3.20065     -0.32840330     -0.13053807             
P   2.53           H   24.80          G   0.15           U   8                  
Residuals in seconds of arc
240314 F52  0.0   0.1+    240314 033  0.1+  0.5+    240315 Z84  0.2+  0.1+
240314 F52  0.1-  0.5-    240314 033  0.3+  0.6+    240315 807  0.1-  0.2+
240314 F52  0.4+  0.4+    240314 033  0.5+  0.2+    240315 807  0.1+  0.0
240314 L01  0.1-  0.1-    240315 958  1.4-  0.2+    240315 807  0.0   0.1-
240314 L01  0.2-  0.6-    240315 958  0.8-  0.7-    240315 J57  0.2+  0.1-
240314 L01  0.7-  0.2-    240315 958  0.1+  0.6-    240315 J57  0.2-  0.1-
240314 L01  0.1+  0.5+    240315 Z84  0.1+  0.0
Ephemeris:
2024 EO4                 a,e,i = 1.86, 0.57, 3                   q = 0.7914
Date    TT    R. A. (2000) Decl.     Delta      r    Elong.  Phase     V
2024 02 14    11 37 41.6 +02 48 44   0.4237  1.3726   150.7    20.6    24.6
...
2024 02 29    11 48 16.5 +04 41 05   0.2580  1.2404   163.8    12.9    23.1
...
2024 03 08    11 55 56.8 +07 24 13   0.1798  1.1698   169.3     9.0    22.0
...
2024 03 14    12 06 06.1 +11 31 09   0.1254  1.1173   168.4    10.3    21.2
2024 03 15    12 08 38.9 +12 32 53   0.1167  1.1087   167.4    11.3    21.1
2024 03 16    12 11 36.4 +13 43 52   0.1081  1.1000   166.2    12.5    20.9
...
2024 03 22    12 49 01.6 +27 07 33   0.06013 1.0491   150.4    28.0    20.0
...
2024 03 30    20 41 55.2 +49 08 19   0.03875 0.9841    66.8   111.1    21.9
...
2024 04 14    23 12 35.6 +11 51 38   0.1550  0.8783    33.7   140.6    27.4
A. U. Tomatic                (C) Copyright 2024 MPC           M.P.E.C. 2024-E196
    
    
More information about the Iaude
mailing list